Tracking 26180 objects as of 24-Sep-2022
HD Live streaming from Space Station
objects crossing your sky now

UNICORN-2D

Track UNICORN-2D now!
10-day predictions


NORAD ID: 51032
Int'l Code: 2022-002BA
Perigee: 492.7 km
Apogee: 506.1 km
Inclination: 97.5 °
Period: 94.5 minutes
Semi major axis: 6870 km
RCS: Unknown
Launch date: January 13, 2022
Source: Germany (GER)
Launch site: AIR FORCE EASTERN TEST RANGE (AFETR)
aabbcc
Your satellite tracking list
Your tracking list is empty




NASA's NSSDC Master Catalog

Two Line Element Set (TLE):
1 51032U 22002BA  22267.46225559  .00025255  00000-0  10259-2 0  9992
2 51032  97.4674 334.4073 0009727  67.2486  59.4452 15.24515394 38528
Source of the keplerian elements: AFSPC